[[{"header":{"parameterUnit":"m.s-1","parameterCategory":1,"la1":30.2992,"la2":30.254,"lo1":-89.0895,"lo2":-89.0443,"dy":0.0025,"dx":0.0025,"nx":19,"ny":19,"refTime":"2026-03-27T03:00:00:Z","depth":0,"parameterNumber":2,"parameterNumberName":"U-component_of_WINDS"},"data":[0,0,0,-2.1152,-2.1155,-2.127,-2.127,-2.1418,-2.142,0,0,0,0,0,0,0,0,0,0,0,-2.112,-2.1121,-2.1152,-2.1155,-2.127,-2.127,-2.1418,-2.142,0,0,0,0,0,0,0,0,0,0,0,-2.112,-2.1121,-2.1122,-2.1155,-2.127,-2.127,-2.1418,-2.133,0,0,0,0,0,0,0,0,0,0,-2.1218,-2.1191,-2.1121,-2.1122,-2.1156,-2.127,-2.127,-2.1326,-2.1336,-2.1367,0,-2.1396,0,-2.141,-2.143,-2.143,0,0,0,-2.1153,-2.1183,-2.1212,-2.1122,-2.1157,-2.127,-2.1218,-2.1332,-2.1343,-2.138,-2.1399,-2.1404,-2.1413,-2.1431,-2.1432,-2.1619,-2.162,0,0,-2.1147,-2.1142,-2.1205,-2.1219,-2.1203,-2.1214,-2.1221,-2.1338,-2.1358,-2.1399,-2.1407,-2.1415,-2.1432,-2.1433,-2.1618,-2.1619,0,0,0,-2.113,-2.1137,-2.1164,-2.1213,-2.1234,-2.1217,-2.1226,-2.1353,-2.1362,-2.1409,-2.1417,-2.1433,-2.1435,-2.1617,-2.1619,-2.1661,0,0,0,-2.1126,-2.1127,-2.1161,-2.1159,-2.1232,-2.1295,-2.1237,-2.1353,-2.1367,-2.1416,-2.1433,-2.1436,-2.1616,-2.1618,-2.1658,-2.1683,0,0,0,-2.1112,-2.1126,-2.1143,-2.1158,-2.1208,-2.1293,-2.1309,-2.1356,-2.1372,-2.143,-2.1436,-2.1615,-2.1618,-2.1655,-2.1678,-2.1731,0,0,0,-2.1095,-2.1179,-2.1144,-2.124,-2.1207,-2.1319,-2.1308,-2.1392,-2.1447,-2.1433,-2.1616,-2.1618,-2.1654,-2.1675,-2.1728,-2.1776,-2.1795,0,0,-2.1198,-2.1191,-2.1249,-2.122,-2.1338,-2.1302,-2.1425,-2.148,-2.149,-2.1575,-2.158,-2.1659,-2.1678,-2.1731,-2.1903,-2.1918,0,0,0,-2.128,-2.1321,-2.1353,-2.1406,-2.145,-2.1489,-2.1526,-2.1546,-2.1619,-2.1533,-2.1692,-2.1703,-2.1735,-2.1758,-2.1771,-2.1798,-2.1629,-2.1628,-2.1628,-2.1419,-2.1427,-2.1522,-2.1544,-2.1595,-2.1631,-2.1673,-2.1706,-2.1699,-2.1736,-2.1762,-2.1866,-2.1893,-2.1903,-2.1931,-2.1787,-2.1787,-2.1787,-2.1787,-2.1572,-2.1632,-2.1619,-2.1708,-2.1715,-2.1788,-2.1826,-2.1818,-2.1887,-2.1847,-2.1875,-2.1832,-2.1919,-2.1944,-2.1791,-2.179,-2.179,-2.1789,-2.1789,-2.1665,-2.1695,-2.1718,-2.1794,-2.1851,-2.1869,-2.1936,-2.194,-2.1943,-2.1971,-2.1999,-2.1998,-2.1998,-2.1984,-2.1984,-2.1984,-2.1985,-2.1985,-2.1985,-2.1754,-2.1778,-2.1835,-2.1888,-2.1921,-2.1966,-2.2001,-2.2034,-2.2071,-2.2069,-2.2069,-2.2058,-2.1926,-2.1893,-2.1991,-2.199,-2.1989,-2.1989,-2.1988,-2.1909,-2.1874,-2.1961,-2.1995,-2.2056,-2.2113,-2.2115,-2.2181,-2.2209,-2.2241,-2.2224,-2.2125,-2.2118,-2.2108,-2.2081,-2.2222,-2.2222,-2.2222,-2.2222,-2.1989,-2.1985,-2.2075,-2.2128,-2.218,-2.2192,-2.2288,-2.2316,-2.2339,-2.2356,-2.2335,-2.2299,-2.2288,-2.2288,-2.2274,-2.2249,-2.2429,-2.2429,-2.2429,-2.2084,-2.2086,-2.2169,-2.2191,-2.2239,-2.2279,-2.237,-2.2431,-2.2449,-2.2438,-2.2369,-2.236,-2.2302,-2.2283,-2.2272,-2.225,-2.2204,0,0]},{"header":{"parameterUnit":"m.s-1","parameterCategory":1,"la1":30.2992,"la2":30.254,"lo1":-89.0895,"lo2":-89.0443,"dy":0.0025,"dx":0.0025,"nx":19,"ny":19,"refTime":"2026-03-27T03:00:00:Z","depth":0,"parameterNumber":3,"parameterNumberName":"V-component_of_WINDS"},"data":[0,0,0,-8.5443,-8.5448,-8.5677,-8.5678,-8.598,-8.5983,0,0,0,0,0,0,0,0,0,0,0,-8.5386,-8.5388,-8.5443,-8.5449,-8.5677,-8.5678,-8.5979,-8.5983,0,0,0,0,0,0,0,0,0,0,0,-8.5384,-8.5387,-8.539,-8.545,-8.5677,-8.5678,-8.5979,-8.5802,0,0,0,0,0,0,0,0,0,0,-8.5577,-8.5535,-8.5387,-8.5391,-8.5451,-8.5677,-8.5678,-8.5793,-8.5813,-8.5882,0,-8.595,0,-8.5972,-8.6004,-8.6005,0,0,0,-8.544,-8.5519,-8.5572,-8.5391,-8.5453,-8.5677,-8.5572,-8.5804,-8.5826,-8.5908,-8.5954,-8.5965,-8.5977,-8.6006,-8.6008,-8.6446,-8.6449,0,0,-8.5427,-8.5431,-8.5557,-8.5587,-8.5558,-8.5564,-8.5579,-8.5817,-8.5866,-8.5955,-8.5972,-8.5982,-8.6008,-8.6011,-8.6444,-8.6447,0,0,0,-8.5397,-8.5423,-8.5469,-8.5575,-8.5616,-8.5571,-8.5588,-8.5855,-8.587,-8.5975,-8.5985,-8.601,-8.6014,-8.6441,-8.6445,-8.6574,0,0,0,-8.5389,-8.5405,-8.5464,-8.5469,-8.5612,-8.5739,-8.5621,-8.5854,-8.5881,-8.5984,-8.601,-8.6017,-8.6438,-8.6443,-8.6564,-8.6633,0,0,0,-8.5367,-8.5402,-8.5439,-8.5468,-8.5568,-8.5735,-8.5764,-8.5859,-8.5888,-8.6005,-8.6018,-8.6437,-8.6442,-8.6556,-8.662,-8.6752,0,0,0,-8.5343,-8.5547,-8.5441,-8.5672,-8.5566,-8.5814,-8.5762,-8.5946,-8.6062,-8.6012,-8.6439,-8.6445,-8.6553,-8.6611,-8.6743,-8.6865,-8.6917,0,0,-8.5602,-8.5578,-8.5714,-8.5626,-8.5895,-8.5779,-8.6065,-8.6165,-8.617,-8.6353,-8.6363,-8.6567,-8.6619,-8.675,-8.7199,-8.7239,0,0,0,-8.5797,-8.5895,-8.5965,-8.6079,-8.6163,-8.6241,-8.6298,-8.6335,-8.6491,-8.6267,-8.665,-8.668,-8.6757,-8.6815,-8.685,-8.6916,-8.6471,-8.6471,-8.647,-8.6168,-8.6168,-8.6392,-8.642,-8.653,-8.6588,-8.6677,-8.6736,-8.6699,-8.679,-8.6844,-8.7117,-8.7186,-8.7212,-8.7281,-8.6907,-8.6908,-8.6908,-8.6909,-8.6548,-8.6688,-8.6638,-8.6839,-8.6836,-8.7002,-8.7065,-8.7034,-8.7186,-8.7075,-8.7143,-8.7024,-8.7257,-8.7317,-8.6918,-8.6917,-8.6915,-8.6914,-8.6914,-8.6793,-8.686,-8.6905,-8.707,-8.7196,-8.7214,-8.7365,-8.7355,-8.7345,-8.7412,-8.747,-8.7467,-8.7465,-8.744,-8.7441,-8.7442,-8.7443,-8.7444,-8.7444,-8.703,-8.7076,-8.7207,-8.7316,-8.7388,-8.7481,-8.7541,-8.7611,-8.7684,-8.7665,-8.7665,-8.762,-8.728,-8.7195,-8.7459,-8.7456,-8.7454,-8.7453,-8.7452,-8.7419,-8.733,-8.7532,-8.7606,-8.7732,-8.7858,-8.7844,-8.7986,-8.8041,-8.8116,-8.8056,-8.7806,-8.7779,-8.7752,-8.7682,-8.8056,-8.8056,-8.8056,-8.8056,-8.7627,-8.7613,-8.7819,-8.7936,-8.805,-8.8058,-8.8283,-8.8331,-8.8366,-8.8399,-8.8343,-8.8249,-8.8221,-8.8211,-8.8173,-8.8108,-8.8582,-8.8582,-8.8583,-8.7867,-8.7864,-8.806,-8.8098,-8.8196,-8.8279,-8.8491,-8.8625,-8.8644,-8.8604,-8.8426,-8.8403,-8.8251,-8.8202,-8.8158,-8.81,-8.798,0,0]}]]